Theta_e
332 336 337 338 340 341 343 344 348 350 355 356 356 354 357 359 356 352 353 356 352 353 348 349 363 360 359 360 359 360 364 359 358
330 335 336 338 341 342 343 346 348 350 359 358 357 354 358 359 360 357 355 363 360 353 362 353 358 360 360 360 361 364 366 355 361
331 335 337 338 340 342 343 345 348 350 353 355 356 355 356 353 356 359 358 357 361 363 361 363 354 352 363 362 363 365 368 360 363
332 335 336 338 340 343 344 346 349 349 352 353 355 353 356 353 354 356 359 357 358 363 360 363 363 363 363 364 360 366 367 364 364
332 335 337 339 341 344 346 347 349 352 351 351 353 353 356 352 352 357 355 358 358 365 365 362 364 365 365 362 360 365 363 358 356
334 336 338 339 340 342 348 346 350 355 356 353 353 353 350 352 354 354 355 355 358 363 365 365 359 364 364 364 363 363 363 364 362
335 337 340 340 341 345 349 352 354 356 355 357 360 354 351 357 354 356 356 359 364 362 365 365 365 364 364 364 363 362 361 360 361
334 337 339 340 341 345 353 356 358 357 360 362 359 362 363 365 366 365 366 365 364 366 365 363 365 365 366 362 359 356 362 362 361
334 336 339 341 343 346 347 351 353 357 359 363 364 364 360 365 368 369 368 368 367 368 367 367 366 364 364 362 356 344 341 353 357
335 335 336 340 343 347 349 350 353 354 357 360 362 362 360 361 364 363 365 365 365 364 363 366 364 361 360 361 363 336 335 339 353
336 337 337 341 342 346 350 353 353 355 357 358 358 358 358 360 360 359 360 360 359 359 361 362 361 362 362 362 360 335 333 338 354
337 340 341 342 345 347 354 352 355 357 356 357 357 355 352 353 354 352 353 352 355 356 357 361 360 360 359 358 360 331 331 339 349
333 340 344 347 348 352 353 355 356 354 351 351 350 352 353 351 352 351 351 351 351 351 353 353 351 351 353 335 354 324 324 333 345
336 338 344 350 352 352 353 352 350 349 349 349 352 352 352 350 349 350 350 351 351 350 350 349 347 346 347 347 341 330 321 319 339
337 338 344 349 351 351 351 350 349 348 349 351 351 352 351 349 349 348 345 348 349 350 350 347 346 345 344 345 340 321 320 318 317
338 341 345 348 349 349 349 349 349 346 351 351 351 350 348 348 349 348 347 346 348 345 348 345 342 342 340 339 339 336 317 317 319
339 341 345 348 348 347 345 349 348 349 350 351 350 348 348 347 346 344 345 344 343 341 342 342 338 337 337 338 340 337 338 335 333
342 342 346 348 348 346 345 348 350 350 351 351 347 345 346 345 343 343 341 337 332 336 330 321 333 339 338 337 337 333 319 323 337
344 344 348 351 352 347 346 345 348 352 350 350 347 344 341 338 337 339 338 335 332 305 305 302 302 303 316 329 312 306 305 303 304
337 345 348 348 349 347 343 347 348 350 351 350 347 342 344 337 332 335 335 335 334 331 317 303 300 301 302 303 308 302 301 300 302
Wind_Speed
10 16 21 22 22 21 21 21 21 21 21 19 19 18 16 14 14 10 10 10 9 7 6 10 13 13 11 10 9 9 8 8 8
11 14 19 22 23 21 20 19 21 21 20 18 19 19 15 15 15 14 11 12 12 10 10 13 14 13 12 11 11 10 9 9 8
10 11 15 21 21 22 20 21 20 20 20 19 20 19 16 12 15 14 13 10 11 9 9 9 9 10 11 11 10 11 9 9 9
12 9 12 17 18 18 18 18 18 19 17 19 17 18 15 14 13 15 14 13 12 11 11 10 9 6 10 8 8 11 9 10 9
5 9 11 13 19 19 16 17 17 16 18 19 19 17 14 18 18 17 16 15 15 12 12 13 11 10 10 10 11 10 10 12 11
6 6 11 14 17 19 17 18 16 15 14 16 17 17 17 16 14 16 16 13 15 14 13 13 15 13 13 12 13 12 11 11 11
10 9 12 15 16 15 15 14 13 14 14 14 13 17 16 15 17 15 15 14 15 15 14 13 13 13 13 13 13 13 13 13 13
12 12 14 16 17 16 14 14 12 11 12 12 13 12 12 11 12 13 13 14 14 12 12 14 13 12 12 12 14 13 15 14 14
14 14 16 16 16 17 18 17 15 14 13 12 12 12 12 11 10 10 11 11 11 11 11 11 11 12 12 13 12 13 13 14 14
15 16 16 17 18 18 17 17 16 15 14 12 10 9 11 11 10 10 10 9 10 11 12 11 12 12 12 13 13 5 1 4 13
16 17 17 16 14 15 15 14 14 12 11 11 11 10 10 9 6 5 5 6 8 8 8 11 11 12 13 12 10 10 5 5 8
16 16 16 15 14 14 13 14 14 13 12 12 10 9 6 5 5 5 5 5 6 6 9 10 9 10 11 11 10 7 6 5 10
7 15 14 15 16 16 16 14 13 13 12 11 10 10 9 7 6 6 6 5 5 3 3 3 3 4 2 7 4 6 3 4 9
6 11 16 16 17 15 15 15 14 14 13 12 11 10 9 8 6 6 5 6 5 4 5 5 5 5 3 3 2 6 8 5 5
3 10 16 18 16 16 15 15 15 15 13 13 13 12 10 10 9 7 5 5 4 4 4 3 3 4 4 4 6 5 7 2 3
6 9 14 16 17 16 15 15 14 14 13 13 12 11 10 9 7 6 7 5 4 3 4 3 4 3 3 4 3 5 6 4 4
7 8 13 16 18 17 16 14 14 14 15 14 12 10 10 8 9 7 7 7 7 2 2 2 2 2 3 3 4 5 4 6 6
9 8 11 15 17 17 17 16 15 16 15 15 12 10 9 8 8 7 4 6 7 4 7 5 3 2 1 1 2 4 5 4 0
6 6 10 13 16 18 17 17 17 16 15 15 15 12 8 7 6 6 7 7 6 10 9 6 6 6 6 5 8 8 5 4 5
3 8 10 14 15 15 11 13 15 15 15 15 14 12 11 9 4 6 6 8 7 7 4 5 6 7 7 8 9 6 5 4 4
Wind_Direction
177 192 188 195 194 192 182 179 182 182 176 185 187 189 194 197 202 214 222 199 228 243 175 274 169 182 202 219 191 228 197 203 224
187 195 190 192 188 190 182 179 185 186 175 187 187 189 194 193 195 213 212 228 205 234 251 177 236 172 196 208 214 206 213 230 224
184 187 196 184 189 186 185 185 182 188 181 193 190 198 192 201 200 202 214 224 228 226 239 245 141 263 188 207 215 213 217 226 214
162 184 191 187 181 178 186 189 181 185 186 196 198 206 189 204 217 206 207 216 217 225 235 245 241 218 228 204 241 218 200 250 275
120 172 183 197 175 172 178 185 182 184 191 195 200 197 193 202 211 214 208 213 217 214 218 229 228 217 219 225 219 237 208 227 231
155 184 173 184 178 176 177 182 184 183 193 195 200 198 200 211 212 209 218 201 216 212 214 223 229 214 219 216 222 223 227 222 227
161 176 171 177 174 180 177 184 182 177 195 196 205 201 216 202 214 217 222 213 221 212 210 221 226 231 219 222 225 223 232 225 228
166 171 178 177 174 172 174 184 180 176 196 197 200 211 209 220 204 215 211 210 225 227 214 217 227 230 239 233 235 230 219 230 232
179 175 182 175 176 176 180 185 188 190 196 203 204 202 212 211 220 219 216 223 221 222 227 232 223 228 235 239 246 242 213 212 231
188 178 179 176 180 179 181 182 185 185 188 190 196 209 212 213 213 219 224 225 227 229 224 225 232 236 239 236 237 144 195 268 245
181 183 179 177 178 174 175 174 176 175 175 182 189 197 205 209 209 210 220 223 232 231 239 240 237 240 234 239 245 153 219 209 241
167 186 184 181 178 173 166 163 162 159 166 172 178 157 175 188 189 188 200 214 219 224 225 233 243 247 248 242 247 166 176 201 254
168 173 181 176 165 155 163 158 157 156 161 167 174 173 166 164 180 188 198 204 215 216 264 269 273 274 2 40 288 78 75 226 255
180 171 170 169 157 165 161 162 157 162 159 165 152 150 144 143 147 145 140 169 165 173 196 182 198 172 174 169 23 98 76 42 276
219 177 162 168 161 167 164 165 165 162 162 142 150 147 137 139 151 144 139 139 157 176 175 148 150 153 191 150 126 44 90 61 276
221 195 161 172 165 165 166 170 169 160 139 150 148 147 145 144 144 135 151 169 169 171 185 183 188 191 146 139 151 120 132 140 179
239 192 174 174 171 164 167 167 165 151 155 150 155 150 149 153 144 161 165 186 159 194 162 190 210 235 178 160 148 139 181 168 150
279 193 189 179 174 167 169 165 165 159 156 161 141 157 170 169 159 176 138 39 31 50 62 18 17 356 37 291 194 109 55 11 305
289 211 190 188 169 168 169 170 166 157 168 156 159 167 166 178 162 174 181 158 133 58 61 56 54 41 27 93 78 103 112 128 123
323 272 195 197 170 165 157 174 167 156 176 172 173 175 160 153 222 183 157 208 168 159 127 92 78 59 48 50 114 137 141 148 171